Time,TemperatureF,DewpointF,PressureIn,WindDirection,WindDirectionDegrees,WindSpeedMPH,WindSpeedGustMPH,Humidity,HourlyPrecipIn,Conditions,Clouds,dailyrainin,SolarRadiationWatts/m^2,SoftwareType,DateUTC
2013-05-26 00:00:00,59.0,22.0,-100.00,WNW,298,6.0,20.0,24,0.00,,,0.00,0.000000,,2013-05-26 07:00:00,
2013-05-26 00:22:00,59.0,22.0,-100.00,WNW,298,6.0,20.0,24,0.00,,,0.00,0.000000,,2013-05-26 07:22:00,
2013-05-26 00:32:00,59.0,22.0,-100.00,WNW,298,6.0,20.0,24,0.00,,,0.00,0.000000,,2013-05-26 07:32:00,
2013-05-26 00:42:00,59.0,22.0,-100.00,WNW,298,6.0,20.0,24,0.00,,,0.00,0.000000,,2013-05-26 07:42:00,
2013-05-26 00:52:00,59.0,22.0,-100.00,WNW,298,6.0,20.0,24,0.00,,,0.00,0.000000,,2013-05-26 07:52:00,
2013-05-26 01:00:00,59.0,24.0,-100.00,NW,320,3.0,20.0,26,0.00,,,0.00,0.000000,,2013-05-26 08:00:00,
2013-05-26 01:22:00,59.0,24.0,-100.00,NW,320,3.0,20.0,26,0.00,,,0.00,0.000000,,2013-05-26 08:22:00,
2013-05-26 01:32:00,59.0,24.0,-100.00,NW,320,3.0,20.0,26,0.00,,,0.00,0.000000,,2013-05-26 08:32:00,
2013-05-26 01:42:00,59.0,24.0,-100.00,NW,320,3.0,20.0,26,0.00,,,0.00,0.000000,,2013-05-26 08:42:00,
2013-05-26 01:53:00,59.0,24.0,-100.00,NW,320,3.0,20.0,26,0.00,,,0.00,0.000000,,2013-05-26 08:53:00,
2013-05-26 02:00:00,55.0,24.0,-100.00,NW,307,3.0,10.0,30,0.00,,,0.00,0.000000,,2013-05-26 09:00:00,
2013-05-26 02:22:00,55.0,24.0,-100.00,NW,307,3.0,10.0,30,0.00,,,0.00,0.000000,,2013-05-26 09:22:00,
2013-05-26 02:34:00,55.0,24.0,-100.00,NW,307,3.0,10.0,30,0.00,,,0.00,0.000000,,2013-05-26 09:34:00,
2013-05-26 02:43:00,55.0,24.0,-100.00,NW,307,3.0,10.0,30,0.00,,,0.00,0.000000,,2013-05-26 09:43:00,
2013-05-26 02:53:00,55.0,24.0,-100.00,NW,307,3.0,10.0,30,0.00,,,0.00,0.000000,,2013-05-26 09:53:00,
2013-05-26 03:00:00,55.0,27.0,-100.00,NW,309,3.0,10.0,34,0.00,,,0.00,0.000000,,2013-05-26 10:00:00,
2013-05-26 03:23:00,55.0,27.0,-100.00,NW,309,3.0,10.0,34,0.00,,,0.00,0.000000,,2013-05-26 10:23:00,
2013-05-26 03:33:00,55.0,27.0,-100.00,NW,309,3.0,10.0,34,0.00,,,0.00,0.000000,,2013-05-26 10:33:00,
2013-05-26 03:42:00,55.0,27.0,-100.00,NW,309,3.0,10.0,34,0.00,,,0.00,0.000000,,2013-05-26 10:42:00,
2013-05-26 03:52:00,55.0,27.0,-100.00,NW,309,3.0,10.0,34,0.00,,,0.00,0.000000,,2013-05-26 10:52:00,
2013-05-26 04:00:00,56.0,27.0,-100.00,NNW,330,0.0,9.0,32,0.00,,,0.00,0.000000,,2013-05-26 11:00:00,
2013-05-26 04:22:00,56.0,27.0,-100.00,NNW,330,0.0,9.0,32,0.00,,,0.00,0.000000,,2013-05-26 11:22:00,
2013-05-26 04:32:00,56.0,27.0,-100.00,NNW,330,0.0,9.0,32,0.00,,,0.00,0.000000,,2013-05-26 11:32:00,
2013-05-26 04:42:00,56.0,27.0,-100.00,NNW,330,0.0,9.0,32,0.00,,,0.00,0.000000,,2013-05-26 11:42:00,
2013-05-26 04:52:00,56.0,27.0,-100.00,NNW,330,0.0,9.0,32,0.00,,,0.00,0.000000,,2013-05-26 11:52:00,
2013-05-26 05:00:00,54.0,26.0,-100.00,North,357,0.0,5.0,34,0.00,,,0.00,0.000000,,2013-05-26 12:00:00,
2013-05-26 05:22:00,54.0,26.0,-100.00,North,357,0.0,5.0,34,0.00,,,0.00,0.000000,,2013-05-26 12:22:00,
2013-05-26 05:32:00,54.0,26.0,-100.00,North,357,0.0,5.0,34,0.00,,,0.00,0.000000,,2013-05-26 12:32:00,
2013-05-26 05:42:00,54.0,26.0,-100.00,North,357,0.0,5.0,34,0.00,,,0.00,0.000000,,2013-05-26 12:42:00,
2013-05-26 05:52:00,54.0,26.0,-100.00,North,357,0.0,5.0,34,0.00,,,0.00,0.000000,,2013-05-26 12:52:00,
2013-05-26 06:00:00,52.0,24.0,-100.00,East,101,0.0,5.0,33,0.00,,,0.00,0.000000,,2013-05-26 13:00:00,
2013-05-26 06:22:00,52.0,24.0,-100.00,East,101,0.0,5.0,33,0.00,,,0.00,0.000000,,2013-05-26 13:22:00,
2013-05-26 06:32:00,52.0,24.0,-100.00,East,101,0.0,5.0,33,0.00,,,0.00,0.000000,,2013-05-26 13:32:00,
2013-05-26 06:42:00,52.0,24.0,-100.00,East,101,0.0,5.0,33,0.00,,,0.00,0.000000,,2013-05-26 13:42:00,
2013-05-26 06:52:00,52.0,24.0,-100.00,East,101,0.0,5.0,33,0.00,,,0.00,0.000000,,2013-05-26 13:52:00,
2013-05-26 07:00:00,53.0,25.0,-100.00,East,91,1.0,11.0,33,0.00,,,-99.99,3.000000,,2013-05-26 14:00:00,
2013-05-26 07:22:00,53.0,25.0,-100.00,East,91,1.0,11.0,33,0.00,,,-99.99,3.000000,,2013-05-26 14:22:00,
2013-05-26 07:32:00,53.0,25.0,-100.00,East,91,1.0,11.0,33,0.00,,,-99.99,3.000000,,2013-05-26 14:32:00,
2013-05-26 07:42:00,53.0,25.0,-100.00,East,91,1.0,11.0,33,0.00,,,-99.99,3.000000,,2013-05-26 14:42:00,
2013-05-26 07:52:00,53.0,25.0,-100.00,East,91,1.0,11.0,33,0.00,,,-99.99,3.000000,,2013-05-26 14:52:00,
2013-05-26 08:00:00,60.0,28.0,-100.00,East,90,4.0,10.0,29,0.00,,,0.00,118.000000,,2013-05-26 15:00:00,
2013-05-26 08:22:00,60.0,28.0,-100.00,East,90,4.0,10.0,29,0.00,,,0.00,118.000000,,2013-05-26 15:22:00,
2013-05-26 08:33:00,60.0,28.0,-100.00,East,90,4.0,10.0,29,0.00,,,0.00,118.000000,,2013-05-26 15:33:00,
2013-05-26 08:43:00,60.0,28.0,-100.00,East,90,4.0,10.0,29,0.00,,,0.00,118.000000,,2013-05-26 15:43:00,
2013-05-26 08:53:00,60.0,28.0,-100.00,East,90,4.0,10.0,29,0.00,,,0.00,118.000000,,2013-05-26 15:53:00,
2013-05-26 09:00:00,64.0,27.0,-100.00,West,264,7.0,15.0,25,0.00,,,0.00,404.000000,,2013-05-26 16:00:00,
2013-05-26 09:23:00,64.0,27.0,-100.00,West,264,7.0,15.0,25,0.00,,,0.00,404.000000,,2013-05-26 16:23:00,
2013-05-26 09:33:00,64.0,27.0,-100.00,West,264,7.0,15.0,25,0.00,,,0.00,404.000000,,2013-05-26 16:33:00,
2013-05-26 09:42:00,64.0,27.0,-100.00,West,264,7.0,15.0,25,0.00,,,0.00,404.000000,,2013-05-26 16:42:00,
2013-05-26 09:53:00,64.0,27.0,-100.00,West,264,7.0,15.0,25,0.00,,,0.00,404.000000,,2013-05-26 16:53:00,
2013-05-26 10:00:00,66.0,29.0,-100.00,West,265,8.0,20.0,25,0.00,,,0.00,674.000000,,2013-05-26 17:00:00,
2013-05-26 10:23:00,66.0,29.0,-100.00,West,265,8.0,20.0,25,0.00,,,0.00,674.000000,,2013-05-26 17:23:00,
2013-05-26 10:32:00,66.0,29.0,-100.00,West,265,8.0,20.0,25,0.00,,,0.00,674.000000,,2013-05-26 17:32:00,
2013-05-26 10:42:00,66.0,29.0,-100.00,West,265,8.0,20.0,25,0.00,,,0.00,674.000000,,2013-05-26 17:42:00,
2013-05-26 10:52:00,66.0,29.0,-100.00,West,265,8.0,20.0,25,0.00,,,0.00,674.000000,,2013-05-26 17:52:00,
2013-05-26 11:00:00,66.0,33.0,-100.00,West,275,14.0,27.0,29,0.00,,,0.00,929.000000,,2013-05-26 18:00:00,
2013-05-26 11:22:00,66.0,33.0,-100.00,West,275,14.0,27.0,29,0.00,,,0.00,929.000000,,2013-05-26 18:22:00,
2013-05-26 11:32:00,66.0,33.0,-100.00,West,275,14.0,27.0,29,0.00,,,0.00,929.000000,,2013-05-26 18:32:00,
2013-05-26 11:42:00,66.0,33.0,-100.00,West,275,14.0,27.0,29,0.00,,,0.00,929.000000,,2013-05-26 18:42:00,
2013-05-26 11:52:00,66.0,33.0,-100.00,West,275,14.0,27.0,29,0.00,,,0.00,929.000000,,2013-05-26 18:52:00,
2013-05-26 12:00:00,66.0,34.0,-100.00,West,279,16.0,32.0,30,0.00,,,0.00,1142.000000,,2013-05-26 19:00:00,
2013-05-26 12:22:00,66.0,34.0,-100.00,West,279,16.0,32.0,30,0.00,,,0.00,1142.000000,,2013-05-26 19:22:00,
2013-05-26 12:32:00,66.0,34.0,-100.00,West,279,16.0,32.0,30,0.00,,,0.00,1142.000000,,2013-05-26 19:32:00,
2013-05-26 12:42:00,66.0,34.0,-100.00,West,279,16.0,32.0,30,0.00,,,0.00,1142.000000,,2013-05-26 19:42:00,
2013-05-26 12:52:00,66.0,34.0,-100.00,West,279,16.0,32.0,30,0.00,,,0.00,1142.000000,,2013-05-26 19:52:00,
2013-05-26 13:00:00,67.0,32.0,-100.00,West,276,19.0,38.0,27,0.00,,,0.00,1294.000000,,2013-05-26 20:00:00,
2013-05-26 13:22:00,67.0,32.0,-100.00,West,276,19.0,38.0,27,0.00,,,0.00,1294.000000,,2013-05-26 20:22:00,
2013-05-26 13:32:00,67.0,32.0,-100.00,West,276,19.0,38.0,27,0.00,,,0.00,1294.000000,,2013-05-26 20:32:00,
2013-05-26 13:42:00,67.0,32.0,-100.00,West,276,19.0,38.0,27,0.00,,,0.00,1294.000000,,2013-05-26 20:42:00,
2013-05-26 13:52:00,67.0,32.0,-100.00,West,276,19.0,38.0,27,0.00,,,0.00,1294.000000,,2013-05-26 20:52:00,
2013-05-26 14:00:00,68.0,33.0,-100.00,West,266,18.0,33.0,27,0.00,,,0.00,1358.000000,,2013-05-26 21:00:00,
2013-05-26 14:22:00,68.0,33.0,-100.00,West,266,18.0,33.0,27,0.00,,,0.00,1358.000000,,2013-05-26 21:22:00,
2013-05-26 14:33:00,68.0,33.0,-100.00,West,266,18.0,33.0,27,0.00,,,0.00,1358.000000,,2013-05-26 21:33:00,
2013-05-26 14:43:00,68.0,33.0,-100.00,West,266,18.0,33.0,27,0.00,,,0.00,1358.000000,,2013-05-26 21:43:00,
2013-05-26 14:53:00,68.0,33.0,-100.00,West,266,18.0,33.0,27,0.00,,,0.00,1358.000000,,2013-05-26 21:53:00,
2013-05-26 15:00:00,67.0,34.0,-100.00,WNW,282,17.0,34.0,29,0.00,,,0.00,1350.000000,,2013-05-26 22:00:00,
2013-05-26 15:23:00,67.0,34.0,-100.00,WNW,282,17.0,34.0,29,0.00,,,0.00,1350.000000,,2013-05-26 22:23:00,
2013-05-26 15:33:00,67.0,34.0,-100.00,WNW,282,17.0,34.0,29,0.00,,,0.00,1350.000000,,2013-05-26 22:33:00,
2013-05-26 15:42:00,67.0,34.0,-100.00,WNW,282,17.0,34.0,29,0.00,,,0.00,1350.000000,,2013-05-26 22:42:00,
2013-05-26 15:53:00,67.0,34.0,-100.00,WNW,282,17.0,34.0,29,0.00,,,0.00,1350.000000,,2013-05-26 22:53:00,
2013-05-26 16:00:00,67.0,35.0,-100.00,WNW,297,13.0,33.0,30,-99.99,,,0.00,1263.000000,,2013-05-26 23:00:00,
2013-05-26 16:22:00,67.0,35.0,-100.00,WNW,297,13.0,33.0,30,-99.99,,,0.00,1263.000000,,2013-05-26 23:22:00,
2013-05-26 16:32:00,67.0,35.0,-100.00,WNW,297,13.0,33.0,30,-99.99,,,0.00,1263.000000,,2013-05-26 23:32:00,
2013-05-26 16:43:00,67.0,35.0,-100.00,WNW,297,13.0,33.0,30,-99.99,,,0.00,1263.000000,,2013-05-26 23:43:00,
2013-05-26 16:52:00,67.0,35.0,-100.00,WNW,297,13.0,33.0,30,-99.99,,,0.00,1263.000000,,2013-05-26 23:52:00,
2013-05-26 17:00:00,68.0,35.0,-100.00,WNW,288,16.0,31.0,30,0.00,,,0.00,1097.000000,,2013-05-27 00:00:00,
2013-05-26 17:22:00,68.0,35.0,-100.00,WNW,288,16.0,31.0,30,0.00,,,0.00,1097.000000,,2013-05-27 00:22:00,
2013-05-26 17:32:00,68.0,35.0,-100.00,WNW,288,16.0,31.0,30,0.00,,,0.00,1097.000000,,2013-05-27 00:32:00,
2013-05-26 17:42:00,68.0,35.0,-100.00,WNW,288,16.0,31.0,30,0.00,,,0.00,1097.000000,,2013-05-27 00:42:00,
2013-05-26 17:52:00,68.0,35.0,-100.00,WNW,288,16.0,31.0,30,0.00,,,0.00,1097.000000,,2013-05-27 00:52:00,
2013-05-26 18:00:00,66.0,35.0,-100.00,WNW,284,8.0,32.0,32,0.00,,,0.00,876.000000,,2013-05-27 01:00:00,
2013-05-26 18:22:00,66.0,35.0,-100.00,WNW,284,8.0,32.0,32,0.00,,,0.00,876.000000,,2013-05-27 01:22:00,
2013-05-26 18:32:00,66.0,35.0,-100.00,WNW,284,8.0,32.0,32,0.00,,,0.00,876.000000,,2013-05-27 01:32:00,
2013-05-26 18:52:00,66.0,35.0,-100.00,WNW,284,8.0,32.0,32,0.00,,,0.00,876.000000,,2013-05-27 01:52:00,
2013-05-26 19:00:00,67.0,38.0,-100.00,West,271,9.0,20.0,34,-99.99,,,0.00,282.000000,,2013-05-27 02:00:00,
2013-05-26 19:22:00,67.0,38.0,-100.00,West,271,9.0,20.0,34,-99.99,,,0.00,282.000000,,2013-05-27 02:22:00,
2013-05-26 19:32:00,67.0,38.0,-100.00,West,271,9.0,20.0,34,-99.99,,,0.00,282.000000,,2013-05-27 02:32:00,
2013-05-26 19:42:00,67.0,38.0,-100.00,West,271,9.0,20.0,34,-99.99,,,0.00,282.000000,,2013-05-27 02:42:00,
2013-05-26 19:52:00,67.0,38.0,-100.00,West,271,9.0,20.0,34,-99.99,,,0.00,282.000000,,2013-05-27 02:52:00,
2013-05-26 20:00:00,63.0,38.0,-100.00,WNW,292,8.0,24.0,39,0.00,,,0.00,71.000000,,2013-05-27 03:00:00,
2013-05-26 20:21:00,63.0,38.0,-100.00,WNW,292,8.0,24.0,39,0.00,,,0.00,71.000000,,2013-05-27 03:21:00,
2013-05-26 20:33:00,63.0,38.0,-100.00,WNW,292,8.0,24.0,39,0.00,,,0.00,71.000000,,2013-05-27 03:33:00,
2013-05-26 20:43:00,63.0,38.0,-100.00,WNW,292,8.0,24.0,39,0.00,,,0.00,71.000000,,2013-05-27 03:43:00,
2013-05-26 20:53:00,63.0,38.0,-100.00,WNW,292,8.0,24.0,39,0.00,,,0.00,71.000000,,2013-05-27 03:53:00,
2013-05-26 21:00:00,60.0,38.0,-100.00,East,83,1.0,21.0,44,0.00,,,0.00,24.000000,,2013-05-27 04:00:00,
2013-05-26 21:23:00,60.0,38.0,-100.00,East,83,1.0,21.0,44,0.00,,,0.00,24.000000,,2013-05-27 04:23:00,
2013-05-26 21:33:00,60.0,38.0,-100.00,East,83,1.0,21.0,44,0.00,,,0.00,24.000000,,2013-05-27 04:33:00,
2013-05-26 21:43:00,60.0,38.0,-100.00,East,83,1.0,21.0,44,0.00,,,0.00,24.000000,,2013-05-27 04:43:00,
2013-05-26 21:52:00,60.0,38.0,-100.00,East,83,1.0,21.0,44,0.00,,,0.00,24.000000,,2013-05-27 04:52:00,
2013-05-26 22:00:00,57.0,37.0,-100.00,West,266,6.0,16.0,47,0.00,,,0.00,0.000000,,2013-05-27 05:00:00,
2013-05-26 22:22:00,57.0,37.0,-100.00,West,266,6.0,16.0,47,0.00,,,0.00,0.000000,,2013-05-27 05:22:00,
2013-05-26 22:32:00,57.0,37.0,-100.00,West,266,6.0,16.0,47,0.00,,,0.00,0.000000,,2013-05-27 05:32:00,
2013-05-26 22:42:00,57.0,37.0,-100.00,West,266,6.0,16.0,47,0.00,,,0.00,0.000000,,2013-05-27 05:42:00,
2013-05-26 22:52:00,57.0,37.0,-100.00,West,266,6.0,16.0,47,0.00,,,0.00,0.000000,,2013-05-27 05:52:00,
2013-05-26 23:00:00,57.0,35.0,-100.00,WNW,291,2.0,16.0,44,-99.99,,,0.00,0.000000,,2013-05-27 06:00:00,
2013-05-26 23:22:00,57.0,35.0,-100.00,WNW,291,2.0,16.0,44,-99.99,,,0.00,0.000000,,2013-05-27 06:22:00,
2013-05-26 23:32:00,57.0,35.0,-100.00,WNW,291,2.0,16.0,44,-99.99,,,0.00,0.000000,,2013-05-27 06:32:00,
2013-05-26 23:42:00,57.0,35.0,-100.00,WNW,291,2.0,16.0,44,-99.99,,,0.00,0.000000,,2013-05-27 06:42:00,
2013-05-26 23:52:00,57.0,35.0,-100.00,WNW,291,2.0,16.0,44,-99.99,,,0.00,0.000000,,2013-05-27 06:52:00,